#timestamp,LO_Frequency,Hit 
1500163215.8,286047001.5,N
1500163235.7,286047003.4,N
1500163255.5,286047005.7,N
1500163275.3,286047004.2,N
1500163295.2,286047003.7,N
1500163315.0,286047003.4,N
1500163315.9,286047003.4,N
1500163335.8,286047001.7,N
1500163355.6,286047005.4,N
1500163375.4,286047007.6,N
1500163395.3,286047004.6,N
1500163415.1,286047005.3,N
1500163435.9,286047005.6,N
1500163455.7,286047004.6,N
1500163475.5,286047004.5,N
1500163495.4,286047007.3,N
1500163515.2,286047007.1,N
1500163535.0,286047005.0,N
1500163535.9,286047005.0,N
1500163555.8,286047005.7,N
1500163575.6,286047003.6,N
1500163595.5,286047005.4,N
1500163615.3,286047004.4,N
1500163635.1,286047002.3,N
1500163655.9,286047004.1,N
1500163675.7,286047006.0,N
1500163695.6,286047003.0,N
1500163715.4,286047004.7,N
1500163735.2,286047004.9,N
1500163755.1,286047007.1,N
1500163756.0,286047007.1,N
1500163775.8,286047002.9,N
1500163795.7,286047003.0,N
1500163815.5,286047004.0,N
1500163835.3,286047003.8,N
1500163855.2,286047004.2,N
1500163875.0,286047003.3,N
1500163875.9,286047003.3,N
1500163895.8,286047007.6,N
1500163915.6,286047004.6,N
1500163935.4,286047005.7,N
1500163955.3,286047004.6,N
1500163975.1,286047004.9,N
1500163995.8,286047005.9,N
1500164015.7,286047007.6,N
1500164035.5,286047006.8,N
1500164055.4,286047005.9,N
1500164075.2,286047004.9,N
1500164095.0,286047005.8,N
1500164095.9,286047005.8,N
1500164115.8,286047004.5,N
1500164135.6,286047007.0,N
1500164155.5,286047007.1,N
1500164175.3,286047006.6,N
1500164195.1,286047008.0,N
1500164215.9,286047009.2,N
1500164235.7,286047006.1,N
1500164255.5,286047006.9,N
1500164275.4,286047004.8,N
1500164325.3,286047002.9,Y
1500164335.2,286047003.6,N
1500164355.0,286047000.2,N
1500164355.9,286047000.2,N
1500164375.8,286047002.3,N
1500164395.6,286047003.7,N
1500164415.4,286047002.4,N
1500164435.3,286047003.8,N
1500164455.1,286047001.9,N
1500164475.9,286047000.1,N
1500164495.7,286047002.2,N
1500164515.5,286047004.2,N
1500164535.4,286047003.6,N
1500164555.2,286047003.7,N
1500164575.0,286047003.5,N
1500164575.9,286047003.5,N
1500164595.8,286047005.2,N
1500164615.6,286047004.9,N
1500164635.5,286047005.4,N
1500164655.3,286047005.2,N
1500164675.1,286047005.3,N
1500164695.9,286047004.7,N
1500164715.7,286047003.8,N
1500164735.5,286047003.7,N
1500164755.4,286047004.2,N
1500164775.2,286047007.1,N
1500164795.1,286047003.5,N
1500164796.0,286047003.5,N
1500164815.8,286047005.3,N
1500164835.6,286047001.8,N
1500164855.2,286047001.4,N
1500164875.0,286047005.5,N
1500164875.9,286047005.5,N
1500164895.8,286047005.6,N
1500164915.6,286047004.2,N
1500164935.4,286047001.8,N
1500164955.3,286047002.2,N
1500164975.1,286047003.7,N
1500164995.9,286047003.6,N
1500165015.7,286047001.7,N
1500165035.5,286047002.0,N
1500165055.4,286047001.6,N
1500165075.2,286047001.7,N
1500165095.1,286047004.0,N
1500165096.0,286047004.0,N
1500165115.8,286047003.6,N
1500165135.6,286047003.5,N
1500165155.5,286047003.9,N
1500165175.3,286046999.7,N
1500165195.1,286047001.5,N
1500165215.9,286047003.1,N
1500165235.7,286047004.7,N
1500165255.6,286047006.7,N
1500165275.4,286047006.2,N
1500165295.2,286047005.3,N
1500165315.1,286047003.6,N
1500165316.0,286047003.6,N
1500165335.8,286047004.1,N
1500165355.6,286047004.9,N
1500165375.5,286047006.6,N
1500165395.3,286047008.8,N
1500165415.2,286047005.2,N
1500165435.0,286047005.0,N
1500165435.9,286047005.0,N
1500165455.7,286047005.4,N
1500165475.6,286047004.4,N
1500165495.4,286047005.8,N
1500165515.3,286047006.5,N
1500165535.1,286047006.1,N
1500165555.8,286047008.8,N
1500165575.7,286047008.1,N
1500165595.5,286047007.8,N
1500165615.4,286047005.8,N
1500165635.2,286047004.2,N
1500165655.0,286047003.9,N
1500165655.9,286047003.9,N
1500165675.8,286047007.6,N
1500165695.6,286047004.6,N
1500165715.5,286047003.4,N
1500165735.3,286047007.5,N
1500165755.1,286047006.4,N
1500165775.9,286047003.7,N
1500165795.7,286047003.6,N
1500165815.5,286047001.3,N
1500165835.4,286047002.3,N
1500165855.2,286047002.6,N
1500165875.1,286047002.8,N
1500165876.0,286047002.8,N
1500165895.8,286047000.5,N
1500165915.6,286047000.6,N
1500165935.5,286046999.7,N
1500165955.3,286046999.9,N
1500165975.2,286047000.5,N
1500165995.9,286047000.9,N
1500166015.7,286046998.4,N
1500166035.6,286046998.1,N
1500166055.4,286046999.0,N
1500166075.2,286046997.3,N
1500166095.1,286046999.1,N
1500166096.0,286046999.1,N
1500166115.8,286046996.5,N
1500166135.7,286046999.6,N
1500166155.5,286046998.6,N
1500166175.3,286046999.3,N
1500166195.2,286046996.8,N
1500166215.3,286046996.6,N
1500166235.2,286046997.6,N
1500166255.0,286046998.0,N
1500166255.9,286046998.0,N
1500166275.8,286046995.4,N
1500166295.6,286046996.2,N
1500166315.4,286046996.2,N
1500166335.3,286046996.3,N
1500166355.1,286046993.3,N
1500166375.9,286046993.5,N
1500166395.7,286046994.5,N
1500166415.5,286046994.0,N
1500166435.4,286046996.4,N
1500166455.2,286046993.3,N
1500166475.0,286046993.3,N
1500166475.9,286046993.3,N
1500166495.8,286046996.0,N
1500166515.6,286046993.6,N
1500166535.5,286046993.7,N
1500166555.3,286046994.0,N
1500166575.1,286046994.7,N
1500166595.9,286046992.5,N
1500166615.7,286046993.1,N
1500166635.6,286046992.4,N
1500166655.4,286046993.0,N
1500166675.2,286046990.1,N
1500166695.1,286046993.1,N
1500166696.0,286046993.1,N
1500166715.8,286046990.2,N
1500166735.7,286046991.3,N
1500166755.5,286046990.2,N
1500166775.3,286046990.3,N
1500166795.2,286046990.9,N
